Home   Weather   Chittorgarh   Past weeks

Flag for India Past Weather in Chittorgarh, Rajasthan, India — Yesterday and Last 2 Weeks

77 °F


Feels Like: 78 °F
Forecast: 67 / 90 °F
Wind: 5 mph from West

Location: Jaipur / Sanganer

Current Time: Oct 21, 2016 at 1:13:07 AM

Latest Report: Oct 21, 2016 at 12:00 AM

Visibility: 2 mi

Pressure: 29.83 "Hg (28.09 "Hg at 524m altitude)

Humidity: 36%

Dew Point: 48 °F

Location of ChittorgarhLocation

Past Weather in Chittorgarh — Graph


Chittorgarh Temperature Yesterday

Maximum temperature yesterday: 93 °F (at 3:00 PM)
Minimum temperature yesterday: 75 °F (at 6:00 AM)
Average temperature yesterday: 84 °F

High & Low Weather Summary for the Past Weeks

High95 °F (Oct 9, 2:30 PM)100% (Oct 6, 1:00 AM)30.01 "Hg (Oct 6, 1:00 AM)
Low66 °F (Oct 18, 6:00 AM)15% (Oct 15, 3:00 PM)29.71 "Hg (Oct 9, 3:30 PM)
Average84 °F44%29.85 "Hg
* Reported Oct 5 11:30 PM — Oct 21 12:00 AM, Chittorgarh, Weather by CustomWeather, © 2016

Note: Actual official high and low records may vary slightly from our data, if they occured in-between our weather recording intervals... More about our weather records


Chittorgarh Weather History for the Previous 24 Hours

Scroll right to see more
Time TempWeatherWind HumidityBarometerVisibility
12:00 AM
Fri, Oct 21
77 °FHaze.5 mph36%29.83 "Hg2 mi
11:00 PM
Thu, Oct 20
81 °FHaze.5 mph30%29.83 "Hg2 mi
10:00 PM82 °FHaze.5 mph28%29.83 "Hg2 mi
9:00 PM82 °FHaze.3 mph26%29.83 "Hg2 mi
8:30 PM81 °FHaze.3 mph30%29.83 "Hg2 mi
8:00 PM82 °FHaze.1 mph28%29.83 "Hg2 mi
6:30 PM86 °FHaze.3 mph22%29.80 "Hg2 mi
6:00 PM88 °FHaze.3 mph21%29.80 "Hg2 mi
5:30 PM88 °FClear.5 mph21%29.80 "Hg4 mi
5:00 PM90 °FClear.5 mph20%29.80 "Hg4 mi
4:00 PM91 °FClear.7 mph18%29.77 "Hg4 mi
3:30 PM93 °FClear.7 mph17%29.77 "Hg4 mi
3:00 PM93 °FClear.12 mph17%29.77 "Hg4 mi
2:30 PM91 °FClear.8 mph18%29.80 "Hg4 mi
2:00 PM91 °FClear.9 mph18%29.80 "Hg4 mi
1:30 PM91 °FClear.9 mph18%29.80 "Hg4 mi
12:30 PM91 °FClear.7 mph21%29.83 "Hg4 mi
12:00 PM91 °FClear.7 mph23%29.86 "Hg4 mi
11:30 AM90 °FHaze.8 mph24%29.89 "Hg3 mi
11:00 AM88 °FHaze.8 mph25%29.89 "Hg3 mi
10:30 AM88 °FHaze.8 mph25%29.89 "Hg3 mi
10:00 AM86 °FHaze.8 mph27%29.89 "Hg3 mi
9:30 AM84 °FHaze.7 mph29%29.89 "Hg3 mi
9:00 AM82 °FHaze.8 mph30%29.89 "Hg3 mi
8:30 AM81 °FHaze.6 mph32%29.89 "Hg3 mi
8:00 AM79 °FHaze.7 mph34%29.86 "Hg3 mi
7:30 AM77 °FHaze.6 mph36%29.86 "Hg2 mi
7:00 AM75 °FHaze.5 mph39%29.83 "Hg2 mi
6:30 AM75 °FHaze.5 mph39%29.83 "Hg2 mi
6:00 AM75 °FHaze.5 mph39%29.83 "Hg2 mi
5:30 AM77 °FHaze.6 mph36%29.80 "Hg2 mi
5:00 AM77 °FHaze.5 mph36%29.80 "Hg2 mi
4:00 AM77 °FHaze.5 mph34%29.80 "Hg2 mi
3:00 AM79 °FHaze.6 mph32%29.80 "Hg2 mi
2:30 AM79 °FHaze.5 mph32%29.80 "Hg2 mi
2:00 AM79 °FHaze.6 mph32%29.80 "Hg2 mi
1:00 AM79 °FHaze.5 mph34%29.83 "Hg2 mi
Weather by CustomWeather, © 2016

See weather overviewHow to use our weather pages